Location: City of Moscow
(46.7306°N, 116.9989°W)
Time: 14:06:40
(UTC+00:00)

CUBEBUG 2 - Pass Details

Date: 27 April 2026
Orbit: 546 x 628 km, 97.9° (Epoch: 15 May)

Event Time Altitude Azimuth Distance (km) Brightness Sun altitude
Rises 08:51:58 0° 35° (NE) 2,807 ? -27.6°
Reaches altitude 10° 08:56:03 10° 75° (ENE) 1,875 ? -27.3°
Maximum altitude 08:56:53 11° 87° (E) 1,834 ? -27.3°
Enters shadow 08:57:34 10° 97° (E) 1,852 ? -27.3°
